Location: *
(46.3500°N, 10.9000°E)
Time: 18:25:45
(UTC+00:00)

Okean 3 Rocket - Pass Details

Date: 09 April 2020
Orbit: 616 x 644 km, 82.5° (Epoch: 04 June)

Event Time Altitude Azimuth Distance (km) Brightness Sun altitude
Rises 20:48:38 0° 349° (N) 2,915 7.9 -26.3°
Reaches altitude 10° 20:50:52 10° 348° (NNW) 2,008 6.9 -26.6°
Enters shadow 20:54:37 61° 328° (NNW) 714 4.0 -27.0°
